Terug naar catalogus

SL-16 DEB

LostLEO
NORAD 42242·DEBRIS·🇷🇺 Russia

Gelanceerd Mar 26, 1993 vanaf Baikonur Cosmodrome

Loading…

Volgende Passages (komende 24 uur)

TLE

VerouderdSource: Space-Track

Epoch: Oct 22, 2022, 01:11 UTC

1 42242U 93016CW  22295.04995545  .00007021  00000-0  31430-2 0  9997
2 42242  70.9995  76.3213 0142763 173.2595 187.0496 14.17573471928512

Volg SL-16 DEB in realtime met AllMySat

Download on the App Store